Flight Track Log - Related Links

Times and Time Zones

All times are in EDT time to prevent confusion due to time zone crossing. See the AWE1940 flight status page for this flight to view local times or setup timezone preferences in your user account.

Time Position Orientation Groundspeed Altitude Reporting Facility
EDT Latitude Longitude Course Direction KTS MPH feet Rate Location/Type
Tue 22:19:34 35.1908 -80.9356 167° South 165 190 2,200  Level Atlanta Center
Tue 22:20:28 35.1444 -80.9222 167° South 208 239 4,600 2,765 Climbing Atlanta Center
Tue 22:21:29 35.0950 -80.8556 132° Southeast 289 333 7,500 3,174 Climbing Atlanta Center
Tue 22:22:29 35.1069 -80.7611 81° East 301 346 11,000 3,237 Climbing Atlanta Center
Tue 22:22:45 35.1169 -80.7403 60° Northeast 297 342 11,600 2,368 Climbing Atlanta Center
Tue 22:23:45 35.1564 -80.6625 58° Northeast 302 348 14,000 2,450 Climbing Atlanta Center
Tue 22:24:45 35.2119 -80.5586 57° Northeast 335 386 16,500 2,652 Climbing Atlanta Center
Tue 22:26:46 35.3247 -80.3525 56° Northeast 348 400 22,000 2,133 Climbing Washington Center
Tue 22:27:45 35.3856 -80.2364 57° Northeast 374 430 22,900 496 Climbing Washington Center
Tue 22:28:47 35.4383 -80.1172 61° Northeast 391 450 23,000 504 Climbing Washington Center
Tue 22:29:44 35.4722 -79.9889 72° East 398 458 23,900 1,322 Climbing Washington Center
Tue 22:30:45 35.5083 -79.8583 71° East 391 450 25,600 1,869 Climbing Washington Center
Tue 22:31:46 35.5422 -79.7222 73° East 397 457 27,700 1,900 Climbing Washington Center
Tue 22:32:45 35.5739 -79.5886 74° East 397 457 29,400 1,412 Climbing Washington Center
Tue 22:33:45 35.6094 -79.4575 72° East 430 495 30,500 1,450 Climbing Washington Center
Tue 22:34:45 35.6642 -79.3119 65° Northeast 430 495 32,300 1,289 Climbing Washington Center
Tue 22:35:46 35.7094 -79.2014 63° Northeast 435 501 33,100 1,563 Climbing Washington Center
Tue 22:36:44 35.7747 -79.0381 64° Northeast 440 506 35,400 1,424 Climbing Washington Center
Tue 22:37:44 35.8286 -78.8994 64° Northeast 440 506 35,900 550 Climbing Washington Center
Tue 22:38:44 35.8908 -78.7583 61° Northeast 440 506 36,500 500 Climbing Washington Center
Tue 22:39:44 35.9572 -78.6200 59° Northeast 452 520 36,900 250 Climbing Washington Center
Tue 22:40:44 36.0231 -78.4811 60° Northeast 458 527 37,000  Climbing Washington Center
Tue 22:41:45 36.0889 -78.3447 59° Northeast 458 527 36,900  Descending Washington Center
Tue 22:42:44 36.1547 -78.2081 59° Northeast 458 527 37,000  Climbing Washington Center
Tue 22:43:46 36.2222 -78.0714 58° Northeast 458 527 36,900  Descending Washington Center
Tue 22:44:46 36.2856 -77.9342 60° Northeast 458 527 37,000  Climbing Washington Center
Tue 22:45:46 36.3506 -77.7969 60° Northeast 458 527 36,900  Descending Washington Center
Tue 22:46:46 36.4136 -77.6619 60° Northeast 458 527 37,000 51 Climbing Washington Center
Tue 22:47:44 36.4722 -77.5292 61° Northeast 452 520 37,000  Level Washington Center
Tue 22:48:44 36.5369 -77.3939 59° Northeast 452 520 37,000  Level Washington Center
Tue 22:49:44 36.5928 -77.2683 61° Northeast 447 514 37,000 -50 Level Washington Center
Tue 22:50:44 36.6572 -77.1325 59° Northeast 453 521 36,900 -49 Descending Washington Center
Tue 22:51:46 36.7278 -77.0042 56° Northeast 453 521 36,900 49 Level Washington Center
Tue 22:52:46 36.8311 -76.9100 36° Northeast 448 516 37,000  Climbing Washington Center
Tue 22:53:44 36.9322 -76.8158 37° Northeast 448 516 36,900  Descending Washington Center
Tue 22:54:45 37.0375 -76.7236 35° Northeast 453 521 37,000 50 Climbing Washington Center
Tue 22:55:44 37.1383 -76.6289 37° Northeast 453 521 37,000  Level Washington Center
Tue 22:56:44 37.2392 -76.5361 36° Northeast 453 521 37,000 -50 Level Washington Center
Tue 22:57:45 37.3506 -76.4331 36° Northeast 459 528 36,900  Descending Washington Center
Tue 22:58:44 37.4514 -76.3453 35° Northeast 454 522 37,000  Climbing Washington Center
Tue 22:59:45 37.5603 -76.2625 31° Northeast 454 522 36,900 -50 Descending Washington Center
Tue 23:00:45 37.6692 -76.1875 29° Northeast 449 517 36,900  Level Washington Center
Tue 23:01:44 37.7800 -76.1094 29° Northeast 449 517 36,900 50 Level Washington Center
Tue 23:02:45 37.8886 -76.0286 30° Northeast 443 510 37,000  Climbing Washington Center
Tue 23:03:46 37.9994 -75.9500 29° Northeast 443 510 36,900 -50 Descending Washington Center
Tue 23:04:45 38.1081 -75.8714 30° Northeast 443 510 36,900  Level Washington Center
Tue 23:05:45 38.2189 -75.7925 29° Northeast 443 510 36,900  Level Washington Center
Tue 23:06:44 38.3294 -75.7189 28° Northeast 443 510 36,900  Level Washington Center
Tue 23:07:44 38.4400 -75.6394 29° Northeast 443 510 36,900  Level Washington Center
Tue 23:08:45 38.5483 -75.5597 30° Northeast 443 510 36,900  Level Washington Center
Tue 23:09:43 38.6547 -75.4828 29° Northeast 443 510 36,900  Level Washington Center
Tue 23:10:46 38.7608 -75.4053 30° Northeast 437 503 36,900  Level Washington Center
Tue 23:11:44 38.8692 -75.3250 30° Northeast 442 509 36,900  Level Washington Center
Tue 23:12:44 38.9794 -75.2472 29° Northeast 442 509 36,900  Level Washington Center
Tue 23:13:44 39.0875 -75.1692 29° Northeast 442 509 36,900  Level Washington Center
Tue 23:14:44 39.1936 -75.0881 31° Northeast 442 509 36,900  Level Washington Center
Tue 23:15:44 39.3058 -75.0042 30° Northeast 442 509 36,900  Level Washington Center
Tue 23:18:06 39.5458 -74.8228 30° Northeast 440 506 36,900  Level New York Center
Tue 23:19:07 39.6569 -74.7400 30° Northeast 445 512 36,900  Level New York Center
Tue 23:20:04 39.7658 -74.6597 30° Northeast 450 518 36,900  Level New York Center
Tue 23:21:06 39.8750 -74.5794 29° Northeast 450 518 36,900  Level New York Center
Tue 23:22:06 39.9797 -74.4983 31° Northeast 445 512 36,900  Level New York Center
Tue 23:23:07 40.1142 -74.4622 12° North 437 503 36,900  Level New York Center
Tue 23:24:07 40.2381 -74.4308 11° North 437 503 36,900  Level New York Center
Tue 23:25:05 40.3578 -74.4044 10° North 437 503 36,900  Level New York Center
Tue 23:26:51 40.5711 -74.3497 11° North 429 494 36,900 -181 Level Boston Center
Tue 23:27:51 40.6903 -74.3206 11° North 434 499 36,400 -700 Descending Boston Center
Tue 23:28:51 40.7950 -74.3017 North 428 493 35,500 -900 Descending Boston Center
Tue 23:29:51 40.9119 -74.2747 10° North 423 487 34,600 -1,800 Descending Boston Center
Tue 23:30:51 41.0314 -74.2422 12° North 428 493 31,900 -3,000 Descending Boston Center
Tue 23:31:51 41.1506 -74.2097 12° North 428 493 28,600 -2,950 Descending Boston Center
Tue 23:32:51 41.2825 -74.1775 10° North 428 493 26,000 -1,300 Descending Boston Center
Tue 23:33:51 41.3997 -74.1447 12° North 428 493 26,000 -250 Level Boston Center
Tue 23:34:51 41.5250 -74.1175 North 441 507 25,500 -773 Descending Boston Center
Tue 23:36:03 41.6381 -74.0872 11° North 451 519 24,300 -2,455 Descending Boston Center
Tue 23:37:03 41.7928 -74.0522 10° North 446 513 20,100 -3,250 Descending Boston Center
Tue 23:38:03 41.9100 -74.0192 12° North 431 496 17,800 -2,948 Descending Boston Center
Tue 23:38:59 42.0189 -73.9911 11° North 413 475 14,400 -3,179 Descending Boston Center
Tue 23:40:00 42.1256 -73.9656 10° North 399 459 11,600 -1,686 Descending Boston Center
Tue 23:41:00 42.2319 -73.9403 10° North 382 440 11,000 -942 Descending Boston Center
Tue 23:42:01 42.3325 -73.9172 10° North 363 418 9,700 -1,140 Descending Boston Center
Tue 23:43:01 42.4197 -73.9278 355° North 293 337 8,700 -1,289 Descending Boston Center
Tue 23:44:02 42.4989 -73.9383 354° North 285 328 7,100 -1,672 Descending Boston Center
Tue 23:45:03 42.5842 -73.9486 355° North 292 336 5,300 -1,388 Descending Boston Center
Tue 23:46:03 42.6550 -73.9617 352° North 292 336 4,300 -900 Descending Boston Center
Tue 23:47:03 42.7217 -73.9578 North 270 311 3,500 -750 Descending Boston Center
Tue 23:48:03 42.7844 -73.9422 10° North 240 276 2,800 -550 Descending Boston Center
Tue 23:49:03 42.8533 -73.9297 North 227 261 2,400 -390 Descending Boston Center
Tue 23:50:06 42.8586 -73.8364 86° East 185 213 2,000 -195 Descending Boston Center
Tue 23:51:06 42.8256 -73.8103 150° Southeast 110 127 2,000 -545 Level Boston Center
Tue 23:52:07 42.7922 -73.8094 179° South 107 123 900 -843 Descending Boston Center
Tue 23:53:07 42.7589 -73.8058 175° South 119 137 300 -600 Descending Boston Center

Login

Don't have an account? Register now (free) for customized features, flight alerts, and more!